This is the latest recevied weather packets stored in our database for station/object KB0RPJ. If no packets are shown the sender has not sent any weather packets the latest 10 day(s).
| Time | Temp. | Humidity | Pressure | Rain* | Wind** | Luminosity | Snow |
|---|---|---|---|---|---|---|---|
| 1778092504 | 13.33° C | 39% | 1018.3 hPa | 0 mm | - | 914 W/m² | - |
| 1778092205 | 13.33° C | 39% | 1018.3 hPa | 0 mm | - | 924 W/m² | - |
| 1778091905 | 13.33° C | 41% | 1018.4 hPa | 0 mm | - | 644 W/m² | - |
| 1778091605 | 13.33° C | 41% | 1018.4 hPa | 0 mm | - | 801 W/m² | - |
| 1778091305 | 13.33° C | 38% | 1018.5 hPa | 0 mm | - | 1015 W/m² | - |
| 1778091005 | 12.78° C | 38% | 1018.4 hPa | 0 mm | - | 982 W/m² | - |
| 1778090704 | 12.78° C | 39% | 1018.5 hPa | 0 mm | - | 819 W/m² | - |
| 1778090405 | 12.78° C | 40% | 1018.5 hPa | 0 mm | - | 708 W/m² | - |
| 1778090104 | 12.78° C | 37% | 1018.6 hPa | 0 mm | - | 589 W/m² | - |
| 1778089806 | 12.78° C | 39% | 1018.5 hPa | 0 mm | - | 584 W/m² | - |
| 1778089517 | 12.78° C | 40% | 1018.7 hPa | 0 mm | - | 664 W/m² | - |
| 1778089205 | 12.22° C | 40% | 1018.7 hPa | 0 mm | - | 762 W/m² | - |
| 1778088905 | 12.22° C | 38% | 1018.9 hPa | 0 mm | - | 517 W/m² | - |
| 1778088606 | 12.22° C | 38% | 1018.9 hPa | 0 mm | - | 466 W/m² | - |
| 1778088318 | 12.22° C | 39% | 1018.8 hPa | 0 mm | - | 501 W/m² | - |
| 1778088005 | 12.22° C | 40% | 1018.8 hPa | 0 mm | - | 449 W/m² | - |
| 1778087717 | 12.78° C | 38% | 1018.7 hPa | 0 mm | - | 515 W/m² | - |
| 1778087405 | 12.22° C | 40% | 1018.7 hPa | 0 mm | - | 490 W/m² | - |
| 1778087106 | 12.22° C | 39% | 1018.8 hPa | 0 mm | - | 639 W/m² | - |
| 1778086804 | 12.22° C | 40% | 1018.8 hPa | 0 mm | - | 895 W/m² | - |
| 1778086506 | 12.22° C | 41% | 1018.8 hPa | 0 mm | - | 808 W/m² | - |
| 1778086208 | 12.22° C | 36% | 1018.8 hPa | 0 mm | - | 633 W/m² | - |
| 1778085905 | 12.22° C | 38% | 1018.9 hPa | 0 mm | - | 637 W/m² | - |
| 1778085605 | 11.67° C | 40% | 1018.9 hPa | 0 mm | - | 689 W/m² | - |
| 1778085304 | 11.67° C | 36% | 1018.9 hPa | 0 mm | - | 668 W/m² | - |
* Rain latest hour (hover to see other rain measurements)
** Current wind speed in m/s (hover to see current wind gust speed)